Regional Weather Roundup
Issued by NWS

Home | Current Version | Previous Version | Graphics & Text | Print | Product List | Glossary On
Versions: 1 2 3 4 5 6 7 8 9 10 11 12 13 14 15 16 17 18 19 20 21 22 23 24 25 26 27
000
ASUS45 KCYS 021110
RWRWY

WYOMING REGIONAL WEATHER ROUNDUP
NATIONAL WEATHER SERVICE CHEYENNE WY
400 AM MST FRI DEC 02 2016

NOTE:  "FAIR" INDICATES FEW OR NO CLOUDS BELOW 12,000 FEET
WITH NO SIGNIFICANT WEATHER AND/OR OBSTRUCTIONS TO VISIBILITY.

WYZ001-021200-
YELLOWSTONE NATIONAL PARK

CITY           SKY/WX    TMP DP  RH WIND       PRES   REMARKS
LK YELLOWSTONE   N/A      8   7  95 CALM      30.10R
W YELLOWSTONE  NOT AVBL

$$
WYZ002>013-054>058-071-098>099-021200-
NORTHERN WYOMING

CITY           SKY/WX    TMP DP  RH WIND       PRES   REMARKS
JACKSON        CLOUDY    14  12  92 CALM      30.12S
CODY           FAIR      22  13  68 W5        30.13R WCI  16
GREYBULL       MOCLDY    24  19  81 E5        30.14R WCI  18
WORLAND        CLOUDY    22  20  92 S7        30.14R WCI  13
SHERIDAN       MOCLDY    30  24  78 NW8       30.13R WCI  22
BUFFALO        FAIR      28  18  66 NW8       30.11R WCI  20
GILLETTE       FAIR      25  22  88 CALM      30.09R
HULETT         FAIR      21  19  93 SW9       30.10R WCI  11
NEWCASTLE      FAIR      23  21  93 CALM      30.11R

$$
WYZ014>020-022>026-101>103-021200-
CENTRAL WYOMING

CITY           SKY/WX    TMP DP  RH WIND       PRES   REMARKS
BIG PINEY      FAIR       8   3  80 N7        30.09R WCI  -3
PINEDALE       FAIR       3   1  92 NW10      30.09S WCI -12
DUBOIS         FAIR       9   3  78 NW5       30.07R WCI   0
LANDER         LGT SNOW  21  13  71 CALM      30.11R
RIVERTON       FLURRIES  21  17  84 NW7       30.11S WCI  12
CASPER         CLOUDY    22  21  96 CALM      30.10R
DOUGLAS        CLOUDY    22  20  92 NW6       30.11R WCI  14

$$
WYZ021-027>030-104>119-021200-
SOUTHERN WYOMING

CITY           SKY/WX    TMP DP  RH WIND       PRES   REMARKS
EVANSTON       CLOUDY    17  12  80 N3        30.07S
FORT BRIDGER   CLOUDY    16  14  93 W6        30.10S WCI   7
ROCK SPRINGS   FAIR      11   8  88 W3        30.08S
DIXON          CLOUDY    19  15  87 E3        30.11S
RAWLINS        CLOUDY    12   8  84 NE3       30.06S
SARATOGA       FAIR       9   9 100 NW3       30.07S
LARAMIE        FAIR      10   8  92 N5        30.02R WCI   2
CHEYENNE       CLOUDY    25  15  66 N7        30.07R WCI  17
TORRINGTON     FAIR      23  17  78 CALM      30.11R
PINE BLUFFS    CLOUDY    19  16  86 W3        30.10S

$$




USA.gov is the U.S. government's official web portal to all federal, state and local government web resources and services.